Theta_e
339 338 337 336 336 337 339 342 344 345 345 344 344 344 344 343 342 342 342 342 343 343 342 341 340 340 342 342 340 338 338 340 336 326 322 323 322 323 325 327 329 332 334 335 336 337 337 337 337 337 338 338 339 339 340 340 340 340 340 340 339 339 339 338 338 337 336 336 336 336 335 335 333 333 337 341 341 342 342 341 341 341 343 345 344
338 337 337 337 338 340 341 342 345 346 346 344 343 344 344 343 343 343 343 343 343 343 343 342 342 341 342 344 343 342 340 341 337 326 323 324 324 326 329 332 334 336 336 336 337 336 336 335 336 336 336 337 337 337 337 338 338 338 337 337 337 337 336 336 335 334 334 334 333 333 332 332 331 331 335 336 336 341 344 342 342 340 340 339 336
339 338 337 337 338 340 343 345 347 346 346 346 345 344 344 343 344 345 345 345 344 344 343 342 343 343 343 344 345 344 341 342 340 332 327 326 328 331 332 334 335 336 335 335 335 335 335 335 335 335 335 335 335 334 335 336 336 336 335 335 334 333 333 333 332 332 331 331 331 331 330 330 330 331 332 331 331 338 341 338 335 332 329 328 326
338 338 337 337 339 342 344 346 346 346 346 347 347 345 344 344 344 345 345 345 344 343 343 342 343 343 343 344 344 343 341 342 343 341 335 328 330 333 333 334 333 334 336 335 334 334 334 334 333 332 333 333 333 333 333 333 333 333 333 332 331 330 330 329 330 330 330 330 330 330 330 330 331 331 332 332 331 333 334 332 331 330 329 329 330
339 339 339 339 341 344 345 345 346 346 346 346 346 345 344 344 344 345 345 344 344 343 343 342 343 343 342 343 343 342 341 343 345 345 339 333 334 336 335 333 331 334 337 336 336 338 339 339 335 332 330 331 331 331 330 330 330 330 329 328 328 328 328 328 329 330 331 331 332 332 332 331 332 333 333 333 333 333 333 334 336 338 338 338 339
341 341 341 342 343 344 345 345 345 345 346 346 347 346 345 344 344 344 344 344 343 343 343 342 343 343 341 341 342 342 343 344 344 343 340 339 340 339 337 334 332 334 336 337 339 343 345 344 340 335 330 327 327 327 326 326 326 326 326 326 327 328 329 330 330 331 332 333 334 335 334 334 334 335 335 334 334 335 336 339 341 342 342 342 343
342 343 344 345 345 346 346 345 346 347 348 347 345 345 344 344 344 344 344 344 344 343 342 342 343 343 341 342 342 342 343 344 344 342 340 342 343 342 340 337 335 337 338 338 339 342 345 345 341 336 331 326 325 325 325 325 326 327 328 329 330 330 330 331 331 332 333 334 335 336 336 336 337 337 337 336 336 337 338 340 341 341 340 342 344
344 345 346 346 346 347 345 345 347 349 350 348 345 343 343 343 343 344 344 344 344 343 341 341 343 342 340 343 343 343 343 344 344 343 342 343 344 344 342 339 339 341 341 341 339 337 340 340 336 331 328 326 326 328 328 330 330 331 332 332 332 331 331 331 332 332 333 334 335 336 338 339 340 340 339 339 338 339 339 338 338 338 339 341 343
346 346 346 346 346 344 343 345 348 349 349 348 345 343 343 343 343 343 344 343 343 343 341 340 342 341 341 344 344 343 343 343 343 343 343 343 344 344 343 341 341 341 341 341 338 334 334 335 333 329 327 326 328 331 331 332 332 332 332 332 333 333 334 334 334 335 335 336 336 336 338 340 342 343 343 343 342 342 341 340 339 338 340 341 342
346 347 347 346 344 342 342 345 348 348 348 346 344 343 343 342 343 343 343 343 343 343 341 340 342 341 341 343 343 343 343 342 343 343 343 342 344 345 343 342 341 340 340 339 338 334 333 335 333 330 329 329 331 332 333 333 333 333 334 335 337 337 338 339 339 340 340 339 339 339 340 341 343 344 345 346 346 346 346 345 344 343 342 343 344
347 347 347 344 342 343 344 345 347 347 348 346 344 343 343 342 343 344 344 345 345 344 342 342 342 340 339 339 340 341 340 341 343 343 343 343 343 344 343 342 341 341 340 339 340 338 337 338 336 332 331 332 333 334 334 335 336 337 338 340 341 341 342 343 343 344 343 342 341 341 342 344 345 345 345 346 347 348 349 349 348 347 345 344 345
346 346 345 342 343 345 345 345 346 348 348 347 344 343 344 343 344 345 345 345 345 343 342 341 342 341 339 338 339 341 340 342 344 344 344 344 343 344 344 342 342 342 341 340 341 341 341 341 339 337 335 335 335 336 336 338 339 340 340 342 342 344 344 345 346 345 345 344 342 342 343 345 346 347 347 346 346 347 349 350 350 349 348 346 346
345 345 344 343 343 344 343 343 345 348 348 347 345 344 344 344 344 345 344 345 345 343 341 340 340 340 340 338 339 341 340 342 344 343 344 345 343 344 344 343 342 342 342 340 340 342 343 342 342 341 339 338 336 336 337 339 340 340 341 342 343 344 345 346 346 346 347 346 346 345 344 345 346 347 348 347 346 346 348 349 350 350 349 348 347
345 345 344 343 343 343 342 343 346 348 347 346 345 344 344 345 345 345 345 345 344 342 341 340 339 339 340 340 340 340 341 342 344 343 344 343 343 344 344 344 343 342 342 342 340 341 342 342 343 343 341 340 338 337 338 339 340 340 341 342 344 345 347 348 347 347 348 349 350 349 347 345 345 346 347 347 347 346 347 348 349 350 349 348 348
345 344 344 341 342 343 341 343 346 347 346 344 343 344 346 347 347 346 345 345 344 341 341 342 339 339 340 340 340 340 341 343 343 343 343 343 343 343 343 343 343 341 342 342 341 341 342 342 342 343 342 342 341 341 341 341 341 342 342 342 344 345 347 349 348 347 348 350 351 351 350 346 345 345 344 345 346 346 346 346 348 350 350 349 348
344 343 342 340 341 342 342 343 345 345 344 344 343 343 346 347 346 346 346 345 345 343 344 344 340 339 340 341 341 342 342 343 343 342 341 341 342 342 342 342 342 342 342 343 343 342 342 342 342 343 342 342 342 342 342 343 343 342 342 342 343 344 346 349 349 347 348 350 351 351 349 345 342 342 341 342 343 344 345 346 347 348 350 350 348
343 342 341 340 340 342 342 342 342 343 343 343 343 343 345 347 346 346 346 346 345 345 346 345 341 340 341 342 343 342 343 342 342 341 340 340 340 341 342 341 341 343 343 344 343 341 340 341 342 342 343 343 343 342 342 344 344 343 343 342 343 344 345 348 349 349 349 350 350 350 346 341 338 337 337 339 341 342 344 345 347 348 349 350 349
343 342 342 340 341 342 341 341 341 342 343 342 342 344 345 346 345 346 346 346 346 346 347 345 344 343 343 343 342 341 342 341 341 340 340 340 340 340 341 341 342 343 343 342 342 340 340 340 341 342 343 343 342 342 343 345 346 346 344 343 344 345 347 348 349 350 350 349 348 347 344 340 339 336 335 335 336 339 341 343 345 347 349 349 349
343 343 343 341 342 342 341 342 342 342 343 343 343 343 346 346 345 346 346 346 347 347 346 346 345 344 344 344 343 341 342 343 342 340 340 341 341 341 341 341 341 342 342 341 342 341 340 340 341 342 343 343 343 342 344 346 347 347 346 345 346 348 349 349 349 350 349 347 346 347 346 344 343 339 336 334 333 334 335 337 339 342 346 348 349
342 343 343 342 343 343 341 342 343 343 343 344 343 344 345 346 346 346 346 346 348 347 347 347 346 346 345 344 344 342 342 344 344 342 341 341 341 341 341 340 340 341 341 341 342 341 340 340 341 342 343 343 343 343 345 347 348 347 346 347 349 350 350 350 350 349 347 344 345 346 346 347 345 341 340 338 334 332 331 332 333 335 340 346 348
343 343 342 343 344 344 342 342 343 343 344 344 345 344 344 344 346 345 344 346 347 347 347 348 347 346 345 344 345 345 344 345 345 344 343 343 342 342 341 340 341 341 341 341 342 342 342 342 343 343 343 343 343 345 346 347 348 347 347 349 349 350 350 350 349 347 344 343 344 346 346 346 346 343 341 340 338 336 335 334 332 332 335 341 346
344 345 343 343 344 344 342 343 343 344 345 346 346 346 343 343 345 345 344 346 347 346 347 348 347 346 345 345 346 347 346 346 346 345 344 343 343 343 341 341 341 341 342 342 343 343 343 344 344 344 343 344 345 346 347 347 348 348 348 349 349 349 349 348 348 345 344 344 345 345 346 346 346 345 342 341 341 342 342 341 338 335 333 335 341
344 346 345 343 343 343 343 344 344 344 346 347 347 346 343 341 343 343 344 347 347 345 346 348 346 345 345 346 346 348 348 347 346 346 345 344 344 343 342 342 342 341 342 343 344 344 344 344 344 344 344 344 346 347 347 348 349 349 348 349 349 348 347 347 346 345 345 347 346 347 347 346 346 346 343 341 342 344 345 346 345 342 338 334 335
345 345 344 342 342 341 341 344 346 345 345 346 347 346 343 340 341 341 342 346 346 344 346 347 345 344 344 345 347 349 349 348 347 346 347 346 345 345 344 344 343 342 343 344 344 345 346 346 345 345 344 344 346 348 348 348 349 350 349 348 348 348 346 345 345 345 346 347 347 347 347 346 346 345 343 342 342 344 345 346 347 347 345 340 336
346 344 342 341 342 341 340 342 345 346 345 346 347 346 343 341 342 341 340 342 343 342 345 345 344 345 346 346 348 349 348 348 348 348 347 346 346 347 347 346 345 344 343 344 344 345 346 346 346 345 345 345 348 348 348 348 349 350 349 348 348 348 345 344 345 346 345 345 344 344 344 344 343 341 341 341 342 344 345 346 347 348 349 347 343
343 343 342 342 342 341 340 340 342 346 346 346 346 346 345 342 342 341 340 341 340 340 342 343 343 345 347 346 348 349 349 348 349 348 347 346 347 347 348 348 348 347 346 345 344 344 344 345 346 345 345 347 348 348 349 349 349 350 349 349 349 347 344 343 345 345 344 343 342 342 343 342 340 338 340 341 342 344 345 345 347 347 349 349 348
342 342 342 341 342 342 342 340 340 344 345 345 345 346 346 344 341 342 342 342 341 340 341 342 343 345 346 346 347 348 349 348 348 349 349 348 348 348 349 349 349 348 347 345 344 344 343 343 345 347 347 348 348 349 350 349 349 349 349 349 349 346 343 344 344 344 343 342 342 343 342 340 339 340 341 341 342 345 345 345 347 347 348 348 349
343 344 343 341 341 342 342 341 341 342 343 344 344 345 347 345 343 343 344 344 342 341 341 341 344 346 346 346 346 347 348 348 349 349 349 349 349 350 350 349 348 347 346 346 345 345 345 344 344 345 347 348 348 348 349 349 350 349 349 348 347 344 344 344 344 343 342 341 343 344 342 341 343 344 343 343 343 346 347 347 348 348 348 348 348
345 346 344 342 342 342 342 341 342 342 342 343 343 343 345 346 344 344 345 345 343 342 341 341 344 347 347 347 347 348 349 348 348 348 348 349 350 352 351 349 348 347 349 349 347 346 347 347 346 345 344 345 346 346 347 347 346 345 343 343 343 344 344 344 344 343 342 342 343 344 342 343 346 346 345 345 345 348 349 348 350 351 350 349 348
345 347 346 343 343 344 343 341 341 342 342 342 342 341 343 343 342 342 344 344 343 344 344 343 344 346 348 349 349 350 350 348 348 349 349 351 352 352 351 349 349 350 351 351 350 350 350 349 349 346 342 340 340 340 341 341 339 339 339 340 341 343 343 343 343 343 342 342 344 345 346 347 347 347 346 346 347 348 350 350 351 352 352 351 350
345 347 347 344 344 345 345 343 341 341 342 342 342 341 341 342 342 342 343 342 342 344 344 342 343 346 348 350 351 352 352 350 350 351 352 352 352 352 352 351 351 352 352 352 352 352 351 351 349 344 339 336 336 338 340 341 341 340 340 341 342 342 343 344 345 344 343 342 343 345 346 346 346 346 347 348 349 349 350 352 351 352 353 353 352
346 347 347 346 346 346 346 345 343 342 342 342 342 341 340 341 342 343 343 343 342 343 343 342 342 343 345 347 350 351 351 350 349 349 350 351 352 352 352 351 351 352 353 352 352 352 351 351 346 339 338 336 336 340 341 341 341 341 341 341 342 343 344 345 346 346 344 343 342 342 343 343 344 346 348 349 349 348 349 350 350 350 351 352 351
348 347 347 347 347 347 346 345 344 343 342 343 342 341 340 340 342 343 343 343 342 343 344 343 342 342 342 343 346 349 348 347 346 345 345 349 352 352 351 351 351 352 353 352 352 351 349 347 342 339 340 336 333 337 337 336 338 341 341 341 342 343 343 345 345 346 346 343 342 342 342 343 344 345 346 347 346 346 346 347 348 349 349 348 348
349 347 346 348 348 348 347 345 344 344 343 344 343 342 342 341 342 343 343 342 344 347 347 345 344 344 344 344 344 345 346 345 346 347 347 349 351 352 351 350 350 351 352 352 350 348 345 341 339 338 337 333 330 332 331 333 338 341 342 342 342 342 343 345 346 345 345 344 343 343 342 343 345 346 346 346 346 345 345 347 349 349 348 348 349
350 349 349 349 350 350 348 345 344 344 345 346 345 343 343 343 343 344 343 343 345 347 347 346 347 345 344 345 345 346 348 348 349 351 351 352 352 351 350 349 350 350 351 350 349 346 344 340 337 335 334 331 330 331 331 336 342 345 344 343 342 342 343 344 345 345 346 344 342 342 342 344 346 346 347 347 348 348 348 349 350 351 350 352 351
350 350 350 350 350 349 349 347 345 344 346 348 349 347 346 345 346 346 344 344 345 347 349 350 351 348 347 348 349 349 349 348 347 346 347 349 350 350 349 349 350 350 350 349 347 346 345 342 338 336 335 333 331 332 336 340 343 343 343 342 341 342 343 344 345 345 344 343 342 342 344 346 346 348 350 352 352 352 352 351 352 353 353 353 353
350 349 350 351 350 349 350 350 347 346 349 351 352 352 350 348 348 349 348 347 346 347 349 351 353 352 349 347 346 345 345 344 343 343 342 343 344 347 348 349 349 349 348 347 345 345 346 343 340 339 336 334 332 334 339 343 343 342 341 342 341 341 342 342 343 343 342 343 343 344 346 347 348 350 352 354 354 354 354 353 353 354 353 352 353
352 351 351 352 351 349 351 352 351 350 351 353 354 353 353 351 349 350 351 351 350 350 350 350 351 351 349 346 345 346 346 345 345 345 344 343 342 343 343 344 345 344 344 342 342 343 344 344 345 343 336 334 335 336 340 344 345 345 343 341 340 340 340 341 341 343 344 345 346 347 347 348 350 352 353 354 355 355 354 354 353 353 353 352 353
353 353 352 353 352 351 352 353 353 352 352 353 353 353 354 352 350 349 351 353 354 353 353 353 352 351 350 348 348 348 348 347 346 346 346 346 345 344 343 342 342 343 343 343 342 343 343 344 345 341 336 337 339 339 341 343 345 346 345 342 339 339 341 343 343 345 346 346 347 347 348 349 351 352 353 353 354 354 354 354 354 353 354 354 354
352 352 353 353 353 352 353 353 353 353 352 352 352 352 352 350 349 348 350 354 355 354 353 354 353 352 351 351 349 349 348 347 346 346 346 347 346 346 345 344 343 343 344 344 344 344 344 344 341 339 339 340 340 341 343 343 344 344 345 344 344 343 344 345 346 347 347 347 348 348 348 349 350 352 352 352 353 354 355 355 355 355 354 354 353
351 351 352 353 353 353 353 353 353 353 353 352 350 351 351 349 348 348 349 352 355 354 353 353 353 352 352 351 350 349 348 347 347 346 345 344 344 344 346 346 345 345 345 345 346 346 345 344 342 341 342 341 341 344 345 345 346 346 346 347 348 347 346 346 347 348 349 349 348 348 349 349 350 351 351 352 352 354 355 355 354 353 352 351 350
347 349 351 352 353 352 353 353 353 353 353 353 351 351 352 351 350 350 350 351 353 354 353 353 352 352 351 351 351 349 349 348 347 347 345 344 343 343 345 347 346 346 346 346 347 347 347 346 345 344 343 343 345 346 347 348 348 348 349 349 349 349 348 347 347 348 350 350 349 348 349 350 350 350 351 352 353 353 353 353 351 350 349 349 348
346 347 348 349 350 351 351 351 352 353 352 352 351 352 352 352 351 350 350 350 351 352 353 352 352 352 351 351 350 349 349 348 347 346 345 344 344 343 343 345 346 347 347 347 348 348 348 347 346 346 346 346 346 347 348 349 349 349 350 350 349 349 349 349 349 349 350 351 350 349 350 350 350 351 351 352 352 351 351 350 349 348 349 348 348
347 347 348 348 348 349 349 348 349 350 349 349 350 350 351 351 351 350 348 347 348 349 351 352 351 350 350 350 349 349 347 347 346 346 346 345 345 345 345 345 345 345 345 345 347 348 348 347 347 347 348 348 347 348 348 349 350 350 349 350 350 350 351 351 351 351 351 350 350 350 350 350 351 350 351 350 350 349 349 349 349 349 350 349 349
347 347 349 349 348 347 347 347 346 347 347 347 348 348 347 347 348 349 348 346 346 348 350 350 348 347 346 347 347 347 347 347 347 347 347 347 346 346 346 346 346 346 345 346 347 348 348 349 350 350 350 350 350 349 349 349 350 350 350 350 351 352 352 353 352 351 351 350 351 351 350 350 350 349 349 349 349 349 349 349 349 350 349 350 349
347 347 348 348 348 347 346 346 345 345 346 346 346 345 344 344 345 346 347 346 347 348 350 350 348 347 346 345 345 345 345 346 346 346 347 346 346 345 345 345 345 345 346 346 348 349 351 352 353 353 353 353 352 351 350 350 350 351 351 351 352 352 352 352 351 351 351 351 350 351 350 350 349 348 349 348 348 348 349 349 349 349 348 349 349
347 348 348 348 347 346 345 346 346 346 346 345 345 345 344 343 342 344 345 346 346 347 349 350 350 348 347 345 345 344 344 342 342 343 343 343 343 343 342 343 345 345 347 348 349 350 351 352 353 354 354 353 351 350 350 351 352 352 352 352 352 352 351 351 351 350 349 349 349 349 349 349 347 347 346 345 345 348 349 348 348 349 349 349 350
346 348 348 347 347 346 346 345 345 345 345 345 345 346 345 344 343 343 343 345 345 346 347 348 349 349 348 346 345 345 344 342 339 338 339 339 340 341 341 342 344 345 346 346 346 347 349 351 352 352 352 351 350 350 351 351 351 351 351 351 350 350 351 351 350 348 344 346 348 348 347 345 342 342 341 338 340 345 346 344 346 349 350 349 349
346 346 346 347 347 346 346 346 345 345 345 345 346 346 346 346 346 345 344 343 343 344 346 348 349 349 347 346 346 346 345 342 339 339 339 341 342 343 343 343 344 345 346 345 346 347 348 349 349 350 350 349 349 350 350 350 350 350 350 350 349 350 349 347 344 339 336 341 345 344 342 338 336 339 338 332 334 340 339 335 336 342 348 349 348
348 347 347 347 347 347 347 347 347 347 347 347 347 347 347 348 348 347 346 345 344 345 346 347 348 348 347 347 347 347 346 344 343 343 344 345 347 347 347 347 347 347 347 347 347 347 347 348 348 348 348 348 348 348 349 349 349 348 349 350 349 346 340 334 333 331 330 337 342 341 337 331 329 337 339 330 328 334 333 328 326 326 335 343 343
349 349 349 349 349 348 348 348 348 348 349 349 350 350 350 350 350 350 349 347 347 347 347 348 348 348 348 347 347 346 347 347 347 348 348 348 349 348 348 348 348 348 348 347 347 346 346 345 344 343 343 344 346 347 348 348 348 348 348 346 341 335 329 327 331 333 333 337 339 336 331 322 323 335 340 335 331 330 326 326 324 317 318 325 328
Wind_Speed
19 20 20 20 19 18 17 16 16 15 15 16 16 16 15 15 15 14 13 12 11 11 11 11 10 9 7 7 9 11 11 11 12 12 12 11 11 12 12 12 12 12 12 12 12 11 11 10 10 9 8 8 7 7 7 6 6 5 5 5 5 5 5 5 5 5 6 6 7 7 8 8 9 9 10 10 10 10 12 13 14 13 13 13 14
19 19 20 19 17 17 16 16 14 13 14 14 15 15 15 15 14 13 12 10 9 8 8 9 9 8 7 8 10 11 12 13 13 13 13 12 12 13 13 12 12 12 12 13 13 12 12 11 11 10 9 9 8 7 7 6 6 5 5 5 5 5 5 5 5 5 6 6 7 7 8 9 9 9 10 11 9 9 10 12 12 13 14 14 14
18 18 18 17 17 17 17 16 14 14 13 13 13 14 14 13 12 10 8 6 6 6 6 7 7 7 5 6 8 8 9 12 13 13 12 12 12 13 12 12 12 13 14 14 14 14 14 13 12 11 10 9 8 7 7 6 6 5 5 5 5 5 5 5 5 5 6 6 7 8 9 9 9 10 10 11 11 10 10 11 12 13 13 14 13
17 17 17 16 16 15 15 14 13 12 12 12 12 13 13 11 9 7 5 4 4 5 5 5 5 5 5 4 5 7 8 9 11 11 11 10 11 12 12 12 13 14 15 16 16 16 16 15 14 13 12 10 9 8 7 6 6 6 6 6 6 5 5 5 6 6 7 8 8 9 9 10 10 10 10 11 12 12 12 12 12 13 13 14 14
17 16 15 15 14 13 12 12 11 11 11 12 12 13 13 11 8 6 5 5 6 6 5 4 4 3 3 3 3 5 6 8 9 10 10 10 10 10 10 12 13 14 16 16 16 17 17 17 17 16 14 12 10 9 8 8 7 7 7 7 7 7 6 7 7 8 9 9 9 10 10 10 10 10 11 11 12 12 12 12 12 12 13 14 15
16 15 15 14 14 12 11 10 10 11 11 11 12 12 12 10 9 8 7 7 8 7 6 5 4 3 3 4 3 2 4 6 8 10 10 10 11 10 10 11 12 12 14 14 15 15 16 17 17 17 16 14 12 11 10 9 8 8 8 8 8 8 8 9 9 10 10 10 10 11 10 10 10 11 11 12 12 12 12 12 12 12 13 14 14
15 14 14 13 12 10 10 10 10 11 10 10 11 12 11 10 10 9 8 7 7 7 7 6 4 3 4 4 2 1 0 3 6 8 8 8 11 11 10 11 12 12 11 11 12 13 13 14 15 16 16 15 13 12 11 10 10 10 10 10 10 10 10 11 11 11 11 11 12 11 11 10 11 11 12 12 11 12 12 13 13 13 13 13 14
14 13 12 11 10 9 11 12 12 11 10 9 11 12 12 11 10 8 7 6 6 7 7 6 5 4 5 4 2 3 3 1 3 5 6 7 8 10 11 11 12 12 11 10 10 11 12 13 14 14 14 13 12 11 11 11 11 11 11 11 11 12 12 12 12 12 13 13 13 12 12 11 11 12 12 12 12 12 13 14 14 13 13 14 15
13 12 11 9 9 10 12 12 11 11 10 9 11 13 12 11 10 8 6 6 6 7 7 7 7 5 5 5 3 3 3 1 2 3 5 6 7 7 9 10 11 11 11 10 9 9 10 12 12 13 13 12 11 10 10 10 11 11 12 12 12 12 12 13 13 14 14 15 15 14 13 12 12 13 13 12 12 13 13 14 15 14 14 16 17
12 11 10 10 11 11 10 10 10 10 9 8 10 12 11 10 9 7 6 6 6 7 7 8 9 8 8 7 5 4 3 2 2 3 3 4 5 5 7 9 11 12 12 12 10 9 9 10 11 12 12 11 11 10 10 10 11 11 12 12 12 12 13 13 14 15 15 16 16 16 15 14 14 14 13 13 13 14 14 15 16 16 16 17 17
13 11 11 12 12 11 10 10 10 9 7 6 8 10 10 9 9 7 6 7 7 7 6 8 10 10 8 6 5 5 5 4 3 2 2 3 4 4 5 8 9 10 11 12 11 11 10 10 10 11 11 11 10 10 10 10 10 11 11 11 11 12 13 14 15 15 16 17 17 17 16 15 15 15 15 15 15 15 15 15 16 16 17 17 17
13 12 12 11 11 9 9 10 9 7 6 5 6 8 9 10 9 8 6 6 7 7 6 8 11 9 6 4 4 4 6 6 6 5 3 1 1 2 3 5 7 8 9 10 11 11 11 12 11 11 10 9 9 9 9 9 10 10 11 11 11 12 13 14 15 16 17 18 18 18 18 17 16 16 16 16 17 16 16 16 16 16 17 17 18
12 11 10 10 10 8 9 9 8 6 5 5 6 7 9 10 10 8 7 6 7 8 8 9 10 8 5 5 4 4 6 7 8 8 8 7 5 4 2 0 3 5 6 7 8 9 10 11 11 11 9 8 7 8 8 8 9 11 11 12 11 12 14 15 15 16 17 19 19 19 19 18 17 17 17 17 18 17 17 17 16 16 17 17 18
9 9 9 9 9 8 8 8 7 6 5 6 7 8 9 10 9 8 7 7 7 9 8 8 8 7 5 5 4 4 6 6 7 7 8 10 9 6 4 3 1 2 4 5 6 8 9 9 9 10 10 9 8 8 9 9 10 12 12 12 12 13 15 16 17 16 17 19 19 20 20 19 18 17 17 18 18 18 18 17 17 17 17 17 18
9 8 8 8 8 7 7 7 6 5 6 7 8 9 10 9 8 7 7 7 7 8 8 6 7 6 5 4 3 3 4 4 5 5 5 9 11 10 6 4 3 2 2 3 5 6 7 8 8 8 9 9 10 10 12 12 12 13 12 12 12 14 16 17 18 17 17 19 20 21 21 20 18 18 17 17 17 17 17 17 17 17 17 17 17
9 9 8 8 8 7 7 6 6 6 6 7 8 9 9 9 8 7 6 6 7 8 6 5 7 6 3 2 1 1 2 3 4 3 3 7 11 12 9 4 3 3 2 3 4 6 7 7 7 8 7 9 10 12 14 15 15 14 13 12 12 15 17 17 18 18 18 19 21 22 21 20 18 18 17 17 16 16 16 16 16 17 17 17 17
10 10 9 9 8 8 7 7 7 7 7 7 8 9 9 9 8 7 5 5 7 7 7 7 7 6 3 2 2 0 1 1 3 2 0 6 9 11 11 6 4 4 1 3 4 6 7 7 7 7 7 8 11 13 15 17 17 16 15 13 13 15 17 17 17 18 18 19 20 21 20 19 19 18 17 16 15 15 14 15 15 16 17 18 18
11 10 10 10 9 8 8 8 8 8 8 9 9 8 9 9 8 6 6 5 6 6 6 7 8 6 4 3 2 2 3 1 2 3 4 4 6 8 11 6 3 4 1 4 5 6 8 8 7 7 7 9 11 14 16 18 17 17 17 14 13 15 16 17 17 17 18 19 19 18 18 18 19 19 18 16 15 14 14 14 14 15 16 17 18
12 11 10 10 9 9 9 9 8 8 9 9 9 9 10 10 9 7 6 5 5 6 6 6 6 6 5 3 3 3 4 4 2 2 5 5 5 6 7 6 4 3 2 5 6 7 9 9 8 6 6 9 12 14 17 17 17 18 18 14 13 15 16 17 17 17 18 17 16 15 15 17 18 19 19 18 17 15 15 14 14 15 15 16 17
13 12 11 10 9 9 10 10 9 9 8 8 8 9 10 10 10 8 7 5 4 5 6 5 5 6 5 3 2 3 4 5 7 3 3 5 5 5 5 4 4 2 1 4 5 6 8 8 6 5 7 10 13 15 16 16 16 17 15 13 13 15 16 17 18 18 18 15 13 14 14 15 17 18 20 20 18 17 17 16 16 15 15 15 16
13 12 11 10 9 9 10 10 10 9 8 8 8 8 8 10 10 10 8 5 5 5 5 5 5 6 5 3 2 3 3 4 7 5 3 3 3 4 4 3 4 3 1 2 5 6 8 9 8 5 7 11 13 14 16 16 16 15 13 13 14 14 15 17 19 18 16 13 13 13 14 15 16 17 18 19 19 19 19 18 17 16 15 14 15
13 11 11 11 10 10 10 10 9 9 8 8 8 8 8 9 11 11 9 6 6 5 5 5 5 5 5 4 3 2 4 5 5 5 5 4 3 3 3 1 1 1 0 1 3 6 8 9 9 8 9 11 11 13 16 16 15 15 14 13 13 14 15 18 19 17 13 13 14 15 15 16 17 17 17 18 18 19 20 19 19 17 16 15 15
13 12 11 12 11 10 10 9 9 10 10 9 8 8 8 9 10 11 10 8 7 6 7 7 6 5 5 4 3 4 5 6 6 5 5 6 5 5 4 4 5 5 3 3 4 6 7 6 7 9 10 10 10 13 15 14 14 15 13 13 13 14 17 19 18 15 12 13 15 17 18 18 18 17 16 16 17 19 19 20 20 19 18 16 15
13 12 12 12 11 11 11 10 9 10 11 9 7 7 8 8 9 9 10 10 9 7 8 8 7 7 6 4 3 5 5 5 5 5 5 6 5 6 7 7 7 7 6 6 5 5 7 6 7 9 10 9 9 13 14 14 14 13 12 13 13 15 18 19 17 14 14 15 16 18 19 19 18 16 15 15 16 18 18 19 20 20 19 18 16
13 12 12 12 12 12 12 12 10 10 10 10 8 8 8 9 8 8 9 10 10 9 9 8 7 8 7 5 3 3 3 2 3 4 4 5 4 5 6 7 8 9 10 9 8 7 6 6 7 7 8 7 9 12 12 13 13 11 11 13 14 16 19 18 15 15 16 16 16 19 20 17 16 15 14 14 15 16 17 18 19 20 20 20 18
13 13 12 12 12 12 12 12 11 10 10 10 9 8 7 8 8 8 8 8 9 10 10 10 8 7 7 6 5 2 1 2 1 2 3 4 4 5 7 9 10 10 11 11 10 10 10 8 8 6 2 4 7 10 11 12 12 11 12 15 16 18 17 15 14 16 17 16 16 19 19 16 15 16 16 15 14 15 17 18 19 20 20 20 20
13 12 12 12 12 13 12 12 12 11 10 9 8 7 7 8 8 7 7 8 9 9 10 10 9 8 8 7 7 5 2 2 2 1 3 4 4 6 8 10 11 12 12 11 9 8 9 9 7 3 3 6 8 9 10 11 12 13 14 16 18 18 15 13 13 15 15 16 17 19 18 16 17 18 18 16 15 15 17 18 18 19 20 20 20
12 12 13 12 12 13 12 11 10 10 9 9 8 8 8 8 8 7 7 8 8 8 8 8 8 9 9 8 6 5 4 4 4 3 3 3 5 8 9 10 11 11 12 12 10 8 8 8 6 4 4 7 10 10 11 12 13 15 16 17 17 16 14 13 14 15 16 16 17 17 17 16 18 20 19 16 14 16 18 18 17 18 19 20 20
13 12 13 13 13 14 12 11 10 9 9 10 9 9 9 9 8 7 8 7 6 7 7 7 7 8 8 8 6 5 5 6 6 5 5 4 4 7 8 8 8 9 10 12 12 9 8 9 9 8 7 9 11 12 13 14 14 15 15 15 14 14 15 15 15 16 16 16 16 16 16 15 17 21 19 14 15 18 19 17 16 17 18 19 19
13 13 13 13 13 13 12 11 11 11 10 10 10 9 9 9 8 8 8 7 6 6 6 6 6 7 8 8 7 6 6 8 7 6 5 4 4 5 6 7 7 8 9 11 12 11 10 10 11 11 10 9 10 11 11 11 11 12 12 11 12 13 14 14 14 15 16 15 14 15 15 16 19 21 18 15 16 19 18 17 17 17 17 17 17
14 13 13 14 12 12 12 11 12 12 11 11 11 10 10 9 9 8 8 7 6 5 6 6 7 7 8 8 8 8 8 8 8 7 6 5 5 5 6 8 9 8 9 11 12 11 11 12 12 11 10 10 9 9 9 9 9 10 11 11 11 12 12 13 14 16 17 17 16 15 16 18 20 20 17 15 17 18 19 19 20 19 17 16 15
15 14 14 14 12 11 11 12 12 12 12 11 11 11 11 10 9 9 9 8 7 7 7 7 8 8 8 9 9 9 9 9 8 8 9 9 8 7 7 8 9 8 8 9 11 11 12 13 12 9 9 9 8 7 8 8 8 11 11 10 11 11 11 12 13 14 16 18 20 20 18 18 19 18 15 15 17 18 20 22 22 19 16 14 14
14 14 14 14 13 12 12 12 12 11 11 11 11 11 10 10 10 9 9 9 8 8 8 9 9 8 9 9 9 8 8 8 7 7 8 9 10 9 8 7 7 6 7 8 11 13 13 12 10 8 8 10 9 8 9 10 10 11 11 10 11 11 11 12 12 13 15 18 22 24 21 20 22 21 18 17 17 17 19 20 18 15 12 10 11
13 14 14 13 13 13 13 13 12 12 11 10 11 11 10 10 11 10 10 9 8 7 7 8 7 8 8 9 8 7 6 6 5 4 5 6 8 8 6 5 6 6 7 8 10 14 14 12 9 9 9 11 12 12 13 12 11 12 12 11 11 11 11 11 11 13 16 19 23 25 24 24 25 23 20 18 17 16 15 13 11 10 10 9 10
14 14 13 12 12 12 13 13 13 12 11 11 11 11 10 11 11 10 10 9 8 8 7 6 6 7 8 7 6 5 5 6 5 4 5 5 5 6 5 5 6 6 7 8 9 13 15 13 10 11 13 14 15 14 13 10 10 11 12 12 12 12 12 11 12 15 19 22 25 26 26 26 25 21 18 16 14 12 10 9 9 9 9 10 10
13 13 13 12 11 11 12 12 13 13 11 10 10 9 9 10 10 10 10 9 10 10 8 6 6 6 7 6 5 4 4 5 4 4 5 6 6 6 5 5 7 7 8 9 11 13 14 14 13 14 16 17 15 13 11 9 8 10 12 12 14 14 13 13 15 19 22 24 25 26 26 25 22 17 14 12 11 9 8 8 8 8 9 10 11
13 12 13 13 12 12 11 10 12 13 11 9 9 9 9 9 9 9 9 9 10 10 8 7 7 7 7 6 4 3 2 2 3 4 4 4 5 6 6 6 7 9 11 12 12 12 14 15 15 17 18 17 14 12 11 11 11 12 13 14 15 15 15 15 18 21 23 24 25 25 24 23 18 12 9 9 8 7 7 6 6 7 8 10 11
13 13 13 13 12 12 11 9 9 11 10 9 9 9 9 9 9 9 8 8 8 9 9 9 8 7 6 4 1 2 3 5 7 8 7 6 5 5 5 6 7 9 10 11 12 13 15 16 17 20 19 16 14 13 13 14 15 16 18 18 17 16 18 19 20 22 23 24 24 24 23 21 15 9 6 6 7 6 6 6 7 7 9 11 12
14 14 13 12 12 12 11 10 9 10 11 11 12 11 11 11 11 11 9 8 8 8 8 8 6 4 3 3 3 4 7 10 11 11 11 11 10 8 8 7 8 9 10 12 13 14 16 17 19 20 19 16 16 16 15 16 17 18 20 21 20 19 21 22 23 24 24 24 24 23 22 19 14 8 5 5 5 6 6 7 8 9 10 12 13
15 14 13 13 13 12 13 13 12 12 12 13 13 13 12 12 12 12 11 10 10 9 8 7 6 5 5 6 7 8 10 11 10 8 9 10 11 12 12 11 10 10 11 13 14 15 17 18 19 18 18 18 18 17 17 17 18 19 20 22 23 23 24 25 25 25 25 25 26 25 23 19 14 10 9 8 6 7 8 8 9 11 13 14 15
14 14 14 15 15 14 14 15 15 14 14 13 13 12 12 11 11 12 12 12 12 11 9 8 7 8 9 9 10 11 12 11 10 10 9 8 10 11 13 13 13 12 12 14 15 16 16 17 17 18 19 19 18 18 19 19 19 21 21 22 24 25 27 28 27 26 26 27 28 27 24 20 15 13 13 13 11 9 10 11 12 14 16 16 15
13 14 15 16 16 15 16 16 16 16 15 14 13 12 12 11 11 11 12 13 13 12 10 8 8 9 11 11 12 12 13 13 13 13 11 10 11 11 11 13 15 14 14 15 16 16 16 17 18 19 19 19 18 18 19 20 20 21 22 23 25 27 28 30 29 27 27 30 31 28 24 19 16 15 15 16 14 12 13 14 17 17 17 16 15
17 16 16 16 16 16 15 15 16 17 16 14 12 12 12 12 12 11 11 11 11 12 12 11 10 12 12 13 13 14 14 14 14 14 12 12 12 11 10 11 13 15 16 16 16 17 18 18 18 18 18 19 19 19 20 21 21 21 22 24 26 28 28 30 31 30 29 30 31 29 22 18 17 17 15 15 15 15 15 17 18 18 17 16 14
22 21 20 18 16 15 15 14 15 16 16 14 12 12 13 13 13 13 12 11 10 11 12 13 14 15 15 15 14 14 14 13 13 13 14 14 14 13 13 12 13 14 16 17 18 19 19 19 19 19 20 22 23 22 22 22 23 23 25 26 26 26 27 28 29 30 30 29 28 26 21 17 17 17 15 15 16 15 16 16 16 15 14 15 14
24 24 23 21 18 17 16 17 17 17 16 16 15 15 14 14 14 14 14 13 12 12 14 15 16 15 15 15 15 15 15 15 14 14 14 15 15 15 15 15 16 16 17 18 19 21 21 21 21 20 21 24 25 24 23 23 24 25 26 26 25 26 27 27 28 29 28 26 24 22 20 17 17 16 16 16 15 15 14 13 12 12 13 14 13
23 25 25 23 22 20 20 20 19 18 17 16 17 17 17 16 16 16 16 15 16 16 17 18 18 17 16 16 17 17 18 18 18 17 17 17 17 17 17 18 18 19 19 19 19 20 21 21 21 21 22 24 25 25 24 24 25 26 26 27 27 28 28 27 27 26 23 20 19 19 17 15 15 16 16 16 15 13 12 11 11 11 12 13 12
21 24 26 26 24 23 22 21 20 20 19 18 18 18 17 17 17 18 18 18 19 20 20 21 22 22 21 20 19 19 20 20 21 22 21 21 20 20 20 20 20 20 20 19 19 20 21 22 23 23 24 25 25 25 25 25 25 25 26 27 27 27 27 25 23 20 16 15 14 15 15 14 14 15 15 14 13 11 10 12 13 12 11 10 10
23 24 25 26 26 25 25 24 24 23 23 22 22 21 20 19 19 19 19 19 21 22 23 24 25 24 24 23 22 21 20 20 21 23 23 23 23 22 22 21 21 20 20 19 20 20 21 22 23 24 24 24 25 25 24 23 23 24 24 24 23 23 22 21 18 15 13 12 12 13 13 14 14 15 15 13 11 9 10 12 14 12 9 8 9
27 27 26 26 26 26 26 26 26 26 26 26 26 25 24 23 22 21 21 20 21 22 23 25 26 26 25 24 22 22 20 20 20 21 22 23 22 22 22 21 20 20 20 20 21 21 21 22 22 22 22 22 22 22 21 20 20 20 20 19 18 18 17 17 16 15 13 11 11 14 15 14 14 14 15 14 10 8 10 12 13 12 9 7 8
29 29 30 29 29 29 28 28 28 27 27 28 28 27 26 25 24 23 22 21 21 22 23 24 24 25 24 24 23 22 21 21 21 22 22 22 21 21 20 20 19 19 19 19 20 20 19 19 18 18 17 17 16 16 15 15 15 16 15 15 15 15 14 14 15 16 14 11 11 15 16 15 14 13 15 16 12 9 10 12 12 12 10 8 9
29 28 29 29 29 29 29 29 29 29 29 28 28 28 27 26 25 24 22 22 22 22 23 24 24 23 23 22 22 22 22 22 22 22 21 20 19 19 19 18 17 17 17 17 17 16 15 14 14 13 12 11 11 12 12 11 12 13 14 14 14 14 14 13 13 14 14 12 13 16 18 17 14 12 14 17 16 14 13 13 14 15 13 11 10
Wind_Direction
147 144 139 138 137 134 133 134 132 130 131 130 129 127 126 129 131 130 128 128 124 117 105 88 86 92 84 71 72 73 67 56 51 50 50 54 62 68 70 71 72 74 75 72 67 63 58 54 51 48 47 45 44 42 40 37 35 33 29 25 19 14 10 6 4 0 356 351 348 346 344 342 340 338 333 331 330 328 328 326 327 330 323 317 319
147 143 139 139 137 133 133 135 136 134 135 136 133 131 130 130 131 129 128 130 130 125 111 89 81 91 85 64 65 68 64 60 58 59 60 61 66 71 74 75 76 74 72 69 64 61 57 54 51 49 47 44 42 40 39 39 39 39 39 35 29 23 19 15 13 11 7 359 355 351 349 346 345 345 339 335 339 335 330 330 328 327 326 325 328
147 144 143 142 139 135 134 134 135 134 133 133 135 135 133 131 129 127 131 139 143 143 131 108 89 94 98 65 54 53 56 62 62 59 59 65 71 74 77 78 78 74 71 69 65 63 59 56 53 49 47 46 45 44 43 45 46 46 47 45 40 36 31 28 25 21 17 10 3 359 356 355 353 353 351 349 354 352 340 336 335 337 340 341 343
146 145 142 139 137 135 134 134 133 131 129 129 133 136 135 134 134 134 144 157 162 156 147 137 112 96 108 93 54 47 52 60 61 54 51 66 74 72 76 78 78 77 74 71 68 66 63 59 56 53 50 49 49 50 51 53 53 53 53 52 49 45 42 37 34 28 23 18 12 8 4 1 359 358 360 2 4 2 356 352 351 351 354 354 356
143 141 139 138 139 138 137 137 133 130 128 128 132 137 139 143 148 153 156 160 167 166 161 140 117 106 123 121 71 52 58 59 51 49 54 66 73 70 75 78 80 81 76 74 71 69 66 62 59 55 53 51 51 52 55 57 58 57 56 56 53 49 47 42 38 31 26 22 17 14 10 5 4 5 8 11 10 8 4 1 0 360 358 360 1
142 140 139 141 144 141 138 138 134 130 127 127 133 139 146 153 154 153 150 149 153 164 173 147 112 107 126 123 119 70 61 59 51 57 64 67 74 77 76 73 76 78 78 77 74 69 64 62 59 57 54 52 52 53 55 58 58 59 58 56 55 52 50 45 40 34 28 25 22 20 15 11 10 12 15 15 13 11 8 5 4 4 2 3 4
145 144 145 145 144 141 140 140 135 133 131 133 141 148 153 155 152 147 143 138 134 150 159 143 122 114 114 108 124 216 227 64 58 63 65 61 67 78 78 71 68 66 71 76 75 72 67 63 62 60 58 56 56 57 58 60 60 61 60 58 56 52 49 45 40 35 31 28 27 25 20 16 15 16 18 16 15 13 10 7 6 6 4 6 8
147 147 150 150 146 146 146 141 137 138 138 140 149 155 154 150 149 145 140 129 121 147 155 140 135 120 113 114 121 229 224 144 75 60 62 60 56 67 76 73 68 59 61 71 76 76 73 70 68 66 64 63 63 62 63 65 65 63 60 58 55 51 48 43 40 35 32 30 29 27 23 20 18 18 18 15 15 15 12 8 7 6 4 7 11
149 148 149 150 149 150 148 144 143 146 145 144 149 156 157 151 150 146 139 131 127 151 156 150 153 140 135 142 143 199 215 215 104 80 71 72 58 60 67 65 67 62 61 71 79 77 75 75 75 73 72 70 68 65 65 66 66 63 60 57 53 49 46 41 39 34 31 29 28 26 23 21 19 18 16 14 14 14 12 9 8 8 8 9 10
151 148 146 149 152 150 149 152 151 151 150 147 149 157 160 155 152 148 135 132 140 152 150 151 158 151 150 160 166 180 219 258 134 108 92 85 72 68 63 60 70 73 67 71 77 74 73 73 72 74 75 75 72 68 67 66 65 63 58 56 51 46 42 38 35 32 28 25 22 21 20 19 18 17 13 12 13 11 9 8 6 8 11 9 7
151 150 152 153 154 151 152 159 158 157 157 151 148 152 156 154 150 145 134 130 138 148 158 166 162 151 151 166 182 202 220 221 192 138 110 108 95 89 72 65 76 79 71 70 71 67 65 65 65 70 74 74 73 71 69 65 61 56 49 46 43 38 34 31 29 26 23 21 17 14 13 13 13 13 10 9 8 7 6 5 2 4 8 6 3
154 155 156 155 154 151 154 163 164 161 163 155 144 144 150 153 151 146 136 132 134 131 140 160 164 164 172 187 195 208 210 207 220 237 248 256 178 123 89 71 79 75 69 71 70 62 57 57 59 63 68 69 70 68 64 57 46 37 31 28 30 30 26 23 21 19 19 17 15 11 7 6 6 5 4 3 2 1 2 2 358 359 1 1 359
157 159 159 155 154 152 157 168 170 167 173 163 149 148 154 156 155 151 143 139 138 130 124 134 148 158 175 190 193 196 201 205 214 226 242 251 241 220 232 96 83 64 59 65 64 58 48 45 50 52 53 56 57 54 45 34 22 15 13 13 19 23 21 17 14 13 15 15 13 10 5 2 360 358 358 357 356 354 356 358 355 354 353 354 355
165 166 165 160 157 156 161 168 168 173 178 165 157 155 156 159 159 155 149 144 139 140 137 133 143 146 144 158 165 175 189 201 209 217 229 233 230 225 231 237 211 35 38 45 45 47 39 29 32 39 44 46 41 35 25 12 3 1 3 4 9 14 15 14 11 9 11 12 11 8 4 0 356 354 352 350 350 348 349 352 351 351 349 349 349
175 173 172 166 163 160 161 165 167 168 164 160 161 158 157 161 160 154 148 143 138 145 148 153 168 161 141 147 158 177 198 219 230 239 243 234 232 226 218 220 221 257 356 14 17 20 21 16 13 19 31 34 28 24 17 7 358 354 355 357 359 6 10 10 7 5 5 7 7 5 2 358 355 352 350 347 345 344 344 346 348 348 347 347 346
179 175 174 169 165 159 157 166 171 164 159 163 165 163 164 166 162 154 147 143 140 140 139 153 180 181 166 160 168 219 254 254 235 257 272 225 221 223 216 204 204 219 339 346 340 350 353 356 358 360 9 17 16 13 9 6 360 353 352 353 355 1 5 4 3 2 1 2 3 3 1 359 357 354 350 347 344 342 341 342 344 344 344 345 345
184 177 176 173 166 160 160 167 167 159 160 168 169 169 169 168 165 153 143 144 141 134 125 131 157 175 184 171 157 202 344 177 180 138 109 207 210 219 213 201 202 205 326 328 317 339 338 337 344 346 350 1 6 4 2 2 359 354 352 351 353 359 1 359 357 357 357 357 1 3 5 6 6 2 356 351 348 345 342 341 341 342 342 342 343
186 180 179 176 170 167 167 167 163 160 163 166 171 176 172 169 168 155 140 137 140 143 136 128 134 143 145 145 135 59 42 73 174 119 100 179 203 208 206 202 198 193 274 312 306 332 335 331 333 330 332 348 357 356 357 358 355 352 351 351 356 1 2 358 355 354 352 354 0 5 9 13 13 10 4 358 354 350 346 342 340 340 340 339 340
188 186 183 178 175 174 173 169 166 169 170 169 173 177 175 172 171 166 152 134 139 154 149 135 130 128 122 118 104 70 65 51 23 114 115 121 153 178 199 211 204 196 301 314 298 312 324 325 323 313 314 335 345 348 354 357 353 350 349 354 3 4 2 1 358 353 349 352 0 5 8 12 13 11 9 4 359 355 351 348 344 340 338 337 337
189 191 187 180 179 181 178 176 176 181 182 178 177 177 177 177 178 179 173 155 153 155 145 137 130 130 129 117 91 70 69 49 34 49 107 107 119 126 139 166 178 194 279 297 291 313 329 331 328 301 304 330 340 345 355 360 358 355 356 2 5 0 358 359 358 353 351 355 1 3 3 6 8 8 8 6 2 359 356 354 351 345 339 335 335
191 193 190 185 186 186 184 184 185 190 193 185 180 179 178 184 190 190 184 178 174 162 154 153 136 133 145 135 101 79 72 52 38 31 32 59 86 84 88 131 162 169 183 274 289 319 331 337 342 316 311 334 341 349 358 2 3 3 3 3 357 352 352 353 354 354 355 358 359 357 357 360 2 2 6 8 7 5 2 359 357 352 345 338 335
192 192 192 192 195 193 189 193 194 193 193 185 180 182 181 187 196 197 192 193 192 184 189 191 159 138 138 115 89 83 64 42 30 25 15 8 11 24 27 353 261 246 255 308 306 323 329 338 349 342 332 335 341 356 0 358 0 2 358 353 347 347 349 349 352 354 355 357 355 352 352 353 355 355 360 8 9 8 7 6 3 358 353 346 339
194 193 192 195 201 198 194 198 199 191 189 190 188 185 182 186 192 196 199 199 198 198 204 208 191 160 148 117 74 55 44 26 12 13 11 1 352 352 350 330 317 306 296 304 309 325 331 331 338 340 333 330 342 358 358 353 353 353 350 345 344 347 350 351 353 353 351 350 347 344 344 346 348 348 350 2 7 5 6 8 9 5 0 354 346
200 197 193 195 201 200 198 199 198 194 194 200 203 198 188 185 185 192 203 206 206 205 204 209 199 177 172 155 87 54 43 27 11 357 343 345 342 335 332 323 314 308 301 301 305 328 338 333 328 319 307 316 344 349 349 351 346 341 343 344 346 348 348 351 353 351 346 344 340 338 338 339 343 345 344 352 1 2 1 5 9 8 6 2 354
205 201 195 197 201 201 201 200 198 198 202 206 209 207 195 187 189 194 202 209 213 213 211 212 199 183 185 179 136 69 35 14 15 5 327 321 325 325 330 323 310 301 298 299 299 305 320 335 338 319 293 309 342 341 339 347 343 337 340 342 343 344 344 349 353 350 348 346 342 342 343 342 344 346 344 346 355 358 357 359 3 5 6 5 360
207 203 200 199 201 203 202 205 203 198 203 209 209 210 201 192 196 198 202 212 216 215 216 216 208 197 200 197 185 174 19 339 332 11 333 301 301 318 322 317 312 308 306 308 307 301 297 303 317 325 282 283 322 333 338 343 342 338 337 336 339 341 343 350 352 348 348 346 341 343 347 348 346 346 343 343 350 354 354 354 356 358 360 2 2
210 207 206 203 202 203 203 209 209 199 202 213 213 214 211 204 201 198 202 211 213 213 214 218 218 216 217 213 206 213 254 293 265 311 323 303 308 323 318 311 312 312 314 320 328 327 316 308 303 290 200 239 286 321 336 336 334 333 333 332 333 337 342 347 345 342 342 340 340 345 349 348 345 344 341 340 346 350 350 351 351 351 352 354 358
214 211 209 206 204 205 205 210 212 203 202 209 214 217 215 210 204 202 208 211 211 212 212 216 220 222 227 226 219 224 244 259 260 266 284 301 315 317 311 305 304 309 317 324 333 347 346 334 319 284 247 264 284 302 314 318 319 321 323 324 325 331 338 339 334 333 334 335 341 347 347 345 346 347 344 341 343 345 346 348 349 348 345 346 351
211 211 212 210 205 204 208 212 213 211 207 208 212 214 216 214 207 209 218 216 212 216 217 218 221 221 222 221 217 221 241 248 251 259 260 270 300 309 304 295 295 308 319 322 327 337 340 339 335 322 306 300 298 296 302 310 314 317 320 321 321 327 332 331 328 329 330 331 337 345 346 345 345 345 344 338 336 341 343 345 349 347 342 340 343
208 211 217 217 210 206 211 216 216 216 217 218 218 215 215 218 214 213 221 221 215 220 225 224 222 219 219 226 228 226 234 239 238 250 262 264 273 291 298 295 299 311 316 317 322 326 329 337 343 338 329 322 318 316 320 327 331 334 338 337 334 335 339 343 346 348 346 341 341 343 343 341 338 338 338 333 332 335 337 341 347 344 338 336 337
209 209 216 221 218 212 214 221 221 218 220 225 227 223 219 222 221 220 225 228 223 227 235 233 231 229 227 237 243 237 240 245 244 249 259 265 266 274 293 299 298 304 314 317 318 322 328 335 344 348 344 342 344 346 350 355 354 352 353 351 347 347 351 355 359 359 355 351 349 343 338 339 339 338 335 330 330 330 330 334 337 336 334 332 334
209 209 214 221 224 220 218 222 223 221 223 227 230 229 224 223 224 226 231 234 232 234 242 242 240 242 241 243 248 250 256 263 262 259 257 257 258 265 284 294 294 299 312 314 311 315 323 328 338 356 359 357 2 1 355 355 352 347 347 345 341 341 343 343 345 347 345 344 345 342 341 344 347 344 336 328 325 323 322 323 326 333 337 335 335
209 212 215 218 222 224 222 223 226 225 225 228 230 230 228 226 226 228 233 238 241 241 246 248 246 250 257 257 256 260 269 273 272 267 259 250 249 259 281 298 297 297 308 313 313 316 319 324 337 355 356 351 353 352 345 343 343 340 336 333 331 330 331 330 330 332 332 334 338 340 342 345 345 343 337 327 322 320 318 320 329 345 354 352 348
210 216 218 216 217 222 223 225 227 225 224 227 227 227 227 226 227 230 233 239 243 241 241 244 246 253 261 265 268 272 272 266 262 264 256 247 253 263 280 302 304 301 305 312 316 318 320 325 335 343 343 341 342 344 343 341 343 343 337 334 332 328 326 321 317 322 328 332 334 336 338 340 341 341 336 330 327 325 325 333 353 8 7 2 355
213 216 219 216 214 219 222 224 226 225 224 224 223 224 225 224 228 232 235 236 235 233 232 239 253 258 256 262 271 269 250 240 242 257 268 270 271 267 263 281 297 302 301 303 310 314 316 320 328 333 336 337 337 340 341 341 346 347 342 338 335 330 323 315 314 322 327 330 332 333 334 336 338 340 340 338 338 338 345 2 14 11 357 346 341
215 217 218 217 218 220 219 219 223 222 219 219 222 225 227 228 228 231 236 238 238 238 238 244 259 257 246 248 251 241 237 246 262 290 298 291 269 250 256 278 289 291 292 294 301 308 309 310 317 326 330 330 330 336 341 336 333 334 332 331 331 327 320 315 317 323 325 328 330 332 334 336 340 346 350 352 355 359 9 17 11 358 347 340 336
218 219 217 219 222 218 214 216 221 218 213 218 228 233 235 233 226 225 232 240 246 250 249 252 264 266 258 252 246 243 259 304 335 339 332 307 268 254 262 276 281 288 294 295 297 300 300 301 310 319 324 323 322 331 340 333 325 324 323 324 325 323 319 317 320 323 327 330 331 334 339 342 346 355 3 5 5 8 16 11 355 345 342 344 344
220 220 216 220 224 216 210 217 231 229 222 223 234 239 240 238 232 227 226 235 246 255 260 263 270 274 267 255 252 295 301 312 317 314 309 300 291 291 296 297 296 301 307 306 302 299 297 298 304 311 315 317 319 326 332 330 326 324 321 320 320 321 321 322 325 329 333 334 333 338 346 348 349 358 11 12 2 355 356 351 341 335 334 339 342
217 218 216 218 223 221 216 221 237 243 237 234 238 241 241 242 239 231 226 234 247 253 256 256 253 250 252 256 271 290 296 301 307 307 300 289 284 289 298 302 305 310 314 313 309 304 301 300 301 303 307 313 318 322 325 325 322 319 320 320 322 327 328 328 329 332 335 335 334 341 350 348 344 347 350 351 349 343 337 333 332 331 330 331 333
218 220 221 221 222 222 223 226 233 240 241 239 238 239 241 243 242 237 231 235 247 251 247 244 239 239 252 267 277 286 291 294 300 302 296 286 282 282 284 287 292 302 308 309 308 305 301 298 298 300 304 310 316 320 321 320 318 318 320 322 324 328 327 327 330 333 336 336 334 340 348 344 339 342 339 332 332 333 330 328 328 327 328 328 328
222 222 224 226 225 225 228 231 234 239 242 239 234 233 236 238 240 241 239 239 246 251 247 243 244 248 257 266 273 280 282 283 288 291 288 284 283 282 280 280 284 294 304 307 306 304 300 299 300 302 305 310 316 319 318 318 317 316 318 319 320 322 321 322 326 332 337 337 334 338 346 343 337 342 342 336 333 330 326 326 326 325 325 326 325
224 223 224 227 228 228 231 235 239 242 241 238 235 235 236 236 237 239 242 244 247 250 246 242 244 247 252 258 262 268 272 273 276 280 283 282 281 280 277 273 274 280 291 299 302 300 300 303 305 306 306 310 316 317 317 316 313 312 314 315 316 319 320 321 324 330 337 337 333 337 345 343 337 342 343 337 334 331 327 327 327 327 323 320 320
224 223 222 224 226 226 228 233 237 237 236 235 238 239 240 240 237 231 230 234 240 243 243 243 246 247 248 252 255 258 262 266 269 272 277 280 280 282 281 274 272 274 281 288 293 293 297 303 308 309 308 311 316 317 316 314 312 311 312 313 315 317 319 321 323 327 334 335 331 334 342 344 340 342 343 337 331 330 328 328 329 328 323 320 322
227 226 223 221 222 222 223 225 227 229 232 236 237 239 242 243 240 231 225 225 231 234 236 241 249 253 256 255 254 254 256 259 264 269 275 280 283 285 285 282 280 279 280 283 284 286 292 300 305 306 307 310 314 315 314 312 311 311 310 312 314 315 317 319 319 324 330 332 329 329 336 342 339 339 341 339 335 333 330 330 332 329 325 326 330
225 224 223 220 219 220 222 224 225 227 232 236 237 240 245 245 240 235 231 233 235 232 231 239 249 258 262 258 253 255 258 261 263 266 269 273 278 280 282 282 281 281 283 283 282 285 292 297 299 301 305 308 310 311 311 309 309 310 311 312 313 313 314 315 318 323 328 329 326 324 330 338 338 338 343 344 342 342 341 341 341 336 333 335 334
224 220 219 219 218 221 225 228 229 229 231 234 236 240 244 244 240 238 238 240 240 236 234 239 249 259 263 262 263 264 265 263 262 264 265 267 271 275 279 281 282 283 286 287 285 286 289 291 294 297 301 304 306 307 307 307 308 309 310 311 312 312 313 316 319 324 327 327 324 323 330 341 341 340 347 350 349 351 353 354 353 349 349 347 339
223 219 218 219 219 221 226 229 230 233 235 237 238 239 242 242 240 239 239 242 244 243 241 242 249 256 262 265 270 273 273 269 264 263 265 268 271 274 277 281 284 286 288 289 287 286 287 288 291 295 299 301 302 303 304 305 306 306 307 309 311 312 314 317 320 321 324 327 327 327 335 345 344 341 346 350 352 358 8 11 8 6 5 357 344
225 221 219 221 223 225 228 230 233 238 241 242 242 242 242 241 241 239 239 242 245 246 245 246 249 255 260 264 269 276 279 275 269 266 267 270 274 277 279 282 284 284 285 286 286 286 286 288 291 294 297 298 299 300 301 302 303 304 306 308 310 312 313 315 317 318 325 332 331 331 338 344 343 339 339 343 349 354 5 15 16 15 17 10 355
231 228 226 227 229 230 232 235 238 241 245 246 246 246 246 246 246 247 246 246 247 247 247 247 249 252 257 262 269 275 278 276 272 271 272 274 277 280 281 283 282 281 280 281 283 284 285 287 289 292 293 295 296 298 298 300 302 304 306 308 309 311 312 315 317 320 327 335 333 332 333 337 340 336 332 336 344 347 353 7 13 11 13 17 10
235 234 232 232 233 235 237 239 241 243 245 246 246 247 249 250 251 251 250 249 248 246 245 245 247 251 256 263 270 275 276 275 275 275 275 277 279 280 281 281 280 279 279 279 281 283 284 285 287 289 289 291 292 292 294 297 301 302 304 306 309 311 314 317 318 320 325 332 335 331 327 328 337 337 330 331 335 340 346 356 3 359 353 356 1
237 236 236 236 236 238 239 241 243 244 244 244 244 245 247 249 250 250 251 251 249 247 246 247 249 252 257 263 268 271 272 273 274 276 277 279 280 281 281 281 280 279 279 279 279 280 281 282 283 283 281 279 278 282 288 294 298 300 303 307 310 312 313 315 317 321 324 327 332 330 323 323 331 334 332 332 330 328 331 338 347 348 342 339 344